Location: *
(51.1248°S, 108.4023°W)
Time: 05:27:46
(UTC+00:00)

Cosmos 1862 Rocket - Pass Details

Date: 15 June 2021
Orbit: 603 x 634 km, 82.5° (Epoch: 31 July)

Event Time Altitude Azimuth Distance (km) Brightness Sun altitude
Rises 13:25:53 0° 2° (N) 2,908 7.3 -16.2°
Reaches altitude 10° 13:28:08 10° 5° (N) 2,005 6.5 -15.9°
Maximum altitude 13:32:31 60° 84° (E) 724 4.2 -15.2°
Drops below altitude 10° 13:36:54 10° 163° (SSE) 2,014 6.2 -14.6°
Sets 13:39:10 0° 166° (SSE) 2,923 7.0 -14.2°
